User: anonymous   Login
Location: Raleigh
(35.7720°N, 78.6390°W)
Time: 13:52:43
(UTC-04:00)
Language:

FO-29 - Orbit

View from above orbital plane
View from above orbital plane
View from above satellite
View from above satellite

Ground track
Ground track

The orbit data is extracted from the following two-line orbital elements,

1 24278U 96046B   17111.67083318 -.00000050 +00000-0 -17230-4 0  9999
2 24278 098.5721 002.4303 0351215 123.7371 239.7761 13.53075628020984
Epoch (UTC): 21 April 2017 16:05:59
Eccentricity: 0.0351215
inclination: 98.5721°
perigee height: 799 km
apogee height: 1322 km
right ascension of ascending node: 2.4303°
argument of perigee: 123.7371°
revolutions per day: 13.53075628
mean anomaly at epoch: 239.7761°
orbit number at epoch: 2098

The dashed part of the orbit path shows where the satellite is in the earth's shadow,  

DLR